When you browse on this site, cookies collect data to enhance your experience and personalize the content and advertising you see.
Visit our Privacy Policy to learn more. By continuing to use the site, you agree to this use of cookies and data.
  • In Hungary
  • List of Countries
  • For 7 days
  • Water Temperature
  • Satellite Maps
  • Weather Map
  • News
  • Weather Widgets
  • user-avatar
    Login

    Hourly Weather Seget

    Today, 18 June, Tuesday

    Time Temperature Precipitation Wind Pressure Humidity
    00:00 +21°C° 0 mm 1 mps 715 mmHg 74%
    01:00 +20°C° 0 mm 1 mps 715 mmHg 74%
    02:00 +20°C° 0.1 mm 1 mps 715 mmHg 73%
    03:00 +19°C° 0.1 mm 2 mps 715 mmHg 73%
    04:00 +19°C° 0.1 mm 2 mps 714 mmHg 73%
    05:00 +21°C° 0 mm 1 mps 715 mmHg 70%
    06:00 +22°C° 0 mm 1 mps 715 mmHg 68%
    07:00 +23°C° 0 mm 1 mps 716 mmHg 66%
    08:00 +24°C° 0 mm 1 mps 716 mmHg 62%
    09:00 +25°C° 0 mm 1 mps 716 mmHg 59%
    10:00 +26°C° 0 mm 1 mps 716 mmHg 55%
    11:00 +26°C° 0 mm 2 mps 716 mmHg 55%
    12:00 +26°C° 0 mm 2 mps 716 mmHg 55%
    13:00 +26°C° 0 mm 2 mps 716 mmHg 55%
    14:00 +26°C° 0 mm 2 mps 715 mmHg 55%
    15:00 +26°C° 0 mm 2 mps 715 mmHg 56%
    16:00 +26°C° 0 mm 2 mps 715 mmHg 57%
    17:00 +25°C° 0 mm 2 mps 715 mmHg 62%
    18:00 +24°C° 0 mm 1 mps 715 mmHg 67%
    19:00 +23°C° 0 mm 1 mps 715 mmHg 71%
    20:00 +22°C° 0 mm 1 mps 715 mmHg 73%
    21:00 +21°C° 0 mm 1 mps 715 mmHg 74%
    22:00 +20°C° 0 mm 1 mps 715 mmHg 75%
    23:00 +20°C° 0 mm 1 mps 715 mmHg 75%

    Tomorrow, 19 June, Wednesday

    Time Temperature Precipitation Wind Pressure Humidity
    00:00 +20°C° 0 mm 1 mps 715 mmHg 76%
    01:00 +19°C° 0 mm 1 mps 714 mmHg 76%
    02:00 +19°C° 0 mm 1 mps 714 mmHg 76%
    03:00 +19°C° 0 mm 1 mps 714 mmHg 75%
    04:00 +19°C° 0 mm 1 mps 714 mmHg 75%
    05:00 +20°C° 0 mm 1 mps 714 mmHg 71%
    06:00 +21°C° 0 mm 1 mps 714 mmHg 67%
    07:00 +21°C° 0 mm 0 mps 715 mmHg 63%
    08:00 +24°C° 0 mm 1 mps 715 mmHg 58%
    09:00 +25°C° 0 mm 1 mps 715 mmHg 54%
    10:00 +26°C° 0 mm 2 mps 715 mmHg 50%
    11:00 +26°C° 0 mm 2 mps 715 mmHg 51%
    12:00 +26°C° 0 mm 2 mps 714 mmHg 52%
    13:00 +26°C° 0 mm 3 mps 714 mmHg 53%
    14:00 +26°C° 0 mm 3 mps 714 mmHg 54%
    15:00 +26°C° 0 mm 2 mps 714 mmHg 56%
    16:00 +26°C° 0 mm 2 mps 714 mmHg 58%
    17:00 +25°C° 0 mm 2 mps 714 mmHg 63%
    18:00 +24°C° 0 mm 2 mps 713 mmHg 68%
    19:00 +23°C° 0 mm 1 mps 713 mmHg 73%
    20:00 +22°C° 0 mm 1 mps 713 mmHg 74%
    21:00 +21°C° 0 mm 1 mps 714 mmHg 75%
    22:00 +20°C° 0 mm 1 mps 714 mmHg 76%
    23:00 +19°C° 0 mm 2 mps 714 mmHg 77%

    Day after tomorrow, 20 June, Thursday

    Time Temperature Precipitation Wind Pressure Humidity
    00:00 +19°C° 0 mm 2 mps 713 mmHg 77%
    01:00 +19°C° 0 mm 2 mps 713 mmHg 77%
    02:00 +18°C° 0 mm 2 mps 713 mmHg 77%
    03:00 +18°C° 0 mm 2 mps 713 mmHg 76%
    04:00 +19°C° 0 mm 1 mps 713 mmHg 75%
    05:00 +20°C° 0 mm 1 mps 713 mmHg 71%
    06:00 +22°C° 0 mm 1 mps 714 mmHg 67%
    07:00 +23°C° 0 mm 1 mps 714 mmHg 62%
    08:00 +24°C° 0 mm 1 mps 714 mmHg 59%
    09:00 +25°C° 0 mm 2 mps 714 mmHg 55%
    10:00 +27°C° 0 mm 3 mps 714 mmHg 52%
    11:00 +27°C° 0 mm 3 mps 714 mmHg 53%
    12:00 +27°C° 0 mm 4 mps 714 mmHg 55%
    13:00 +27°C° 0 mm 4 mps 714 mmHg 57%
    14:00 +27°C° 0 mm 4 mps 714 mmHg 57%
    15:00 +26°C° 0 mm 4 mps 714 mmHg 58%
    16:00 +26°C° 0 mm 4 mps 714 mmHg 59%
    17:00 +25°C° 0 mm 3 mps 714 mmHg 64%
    18:00 +24°C° 0 mm 3 mps 714 mmHg 69%
    19:00 +23°C° 0 mm 2 mps 714 mmHg 74%
    20:00 +21°C° 0 mm 2 mps 714 mmHg 75%
    21:00 +20°C° 0 mm 2 mps 714 mmHg 77%
    22:00 +20°C° 0 mm 2 mps 714 mmHg 78%
    23:00 +19°C° 0 mm 2 mps 714 mmHg 76%

    21 June, Friday

    Time Temperature Precipitation Wind Pressure Humidity
    00:00 +19°C° 0 mm 2 mps 714 mmHg 73%
    01:00 +20°C° 0 mm 1 mps 714 mmHg 71%
    02:00 +20°C° 0 mm 1 mps 714 mmHg 70%
    03:00 +19°C° 0 mm 1 mps 714 mmHg 69%
    04:00 +19°C° 0 mm 1 mps 714 mmHg 67%
    05:00 +21°C° 0 mm 1 mps 714 mmHg 64%
    06:00 +22°C° 0 mm 1 mps 714 mmHg 60%
    07:00 +24°C° 0 mm 1 mps 715 mmHg 56%
    08:00 +25°C° 0 mm 1 mps 715 mmHg 53%
    09:00 +26°C° 0 mm 2 mps 715 mmHg 49%
    10:00 +27°C° 0 mm 2 mps 716 mmHg 46%
    11:00 +27°C° 0 mm 2 mps 715 mmHg 45%
    12:00 +28°C° 0 mm 2 mps 715 mmHg 44%
    13:00 +28°C° 0 mm 2 mps 715 mmHg 43%
    14:00 +28°C° 0 mm 2 mps 715 mmHg 43%
    15:00 +28°C° 0 mm 2 mps 715 mmHg 43%
    16:00 +28°C° 0 mm 2 mps 714 mmHg 43%
    17:00 +26°C° 0 mm 2 mps 714 mmHg 48%
    18:00 +25°C° 0 mm 1 mps 714 mmHg 53%
    19:00 +24°C° 0 mm 1 mps 714 mmHg 57%
    20:00 +23°C° 0 mm 1 mps 715 mmHg 58%
    21:00 +22°C° 0 mm 1 mps 715 mmHg 58%
    22:00 +21°C° 0 mm 1 mps 715 mmHg 58%
    23:00 +21°C° 0 mm 1 mps 715 mmHg 57%

    22 June, Saturday

    Time Temperature Precipitation Wind Pressure Humidity
    00:00 +21°C° 0 mm 1 mps 715 mmHg 55%
    01:00 +21°C° 0 mm 1 mps 715 mmHg 54%
    02:00 +21°C° 0 mm 1 mps 715 mmHg 53%
    03:00 +21°C° 0 mm 1 mps 715 mmHg 52%
    04:00 +21°C° 0 mm 1 mps 715 mmHg 51%
    05:00 +22°C° 0 mm 1 mps 715 mmHg 50%
    06:00 +23°C° 0 mm 1 mps 715 mmHg 49%
    07:00 +25°C° 0 mm 1 mps 716 mmHg 48%
    08:00 +26°C° 0 mm 2 mps 716 mmHg 46%
    09:00 +27°C° 0 mm 2 mps 716 mmHg 45%
    10:00 +28°C° 0 mm 2 mps 716 mmHg 43%
    11:00 +28°C° 0 mm 2 mps 716 mmHg 44%
    12:00 +28°C° 0 mm 3 mps 716 mmHg 45%
    13:00 +29°C° 0 mm 3 mps 716 mmHg 46%
    14:00 +28°C° 0 mm 3 mps 715 mmHg 47%
    15:00 +28°C° 0 mm 2 mps 715 mmHg 49%
    16:00 +27°C° 0 mm 2 mps 715 mmHg 50%
    17:00 +26°C° 0 mm 2 mps 715 mmHg 54%
    18:00 +26°C° 0 mm 2 mps 715 mmHg 58%
    19:00 +25°C° 0 mm 1 mps 715 mmHg 62%
    20:00 +24°C° 0 mm 1 mps 715 mmHg 64%
    21:00 +23°C° 0 mm 1 mps 715 mmHg 66%
    22:00 +22°C° 0 mm 1 mps 715 mmHg 67%
    23:00 +22°C° 0 mm 1 mps 715 mmHg 66%

    23 June, Sunday

    Time Temperature Precipitation Wind Pressure Humidity
    00:00 +22°C° 0 mm 1 mps 715 mmHg 64%
    01:00 +21°C° 0 mm 2 mps 715 mmHg 62%
    02:00 +20°C° 0 mm 2 mps 715 mmHg 61%
    03:00 +21°C° 0 mm 1 mps 715 mmHg 61%
    04:00 +21°C° 0 mm 1 mps 715 mmHg 60%
    05:00 +22°C° 0 mm 1 mps 716 mmHg 58%
    06:00 +24°C° 0 mm 1 mps 716 mmHg 57%
    07:00 +25°C° 0 mm 1 mps 717 mmHg 55%
    08:00 +26°C° 0 mm 1 mps 717 mmHg 51%
    09:00 +27°C° 0 mm 1 mps 717 mmHg 48%
    10:00 +29°C° 0 mm 1 mps 717 mmHg 44%
    11:00 +29°C° 0 mm 2 mps 717 mmHg 45%
    12:00 +29°C° 0 mm 2 mps 717 mmHg 45%
    13:00 +29°C° 0 mm 3 mps 717 mmHg 45%
    14:00 +28°C° 0 mm 3 mps 717 mmHg 48%
    15:00 +28°C° 0 mm 3 mps 717 mmHg 51%
    16:00 +28°C° 0 mm 3 mps 717 mmHg 53%
    17:00 +27°C° 0 mm 2 mps 717 mmHg 59%
    18:00 +25°C° 0 mm 2 mps 717 mmHg 64%
    19:00 +24°C° 0 mm 2 mps 717 mmHg 69%
    20:00 +24°C° 0 mm 2 mps 717 mmHg 71%
    21:00 +23°C° 0 mm 2 mps 718 mmHg 72%
    22:00 +22°C° 0 mm 1 mps 718 mmHg 73%
    23:00 +21°C° 0 mm 2 mps 718 mmHg 72%
    Show more